GW6453 Weather Reports


time (UTC)temp
C
wind
direction
speed
KPH
gust
KPH
rain 1hr
cm
rain 24hr
cm
rain mn
cm
humidity
%
barometer
mb
20260510192731 30 251 3.2 6.4 0.00 0.00 0.00 32 1014.0
20260510192232 30 30 3.2 8.0 0.00 0.00 0.00 33 1014.0
20260510191732 30 5 1.6 4.8 0.00 0.00 0.00 34 1014.0
20260510191233 30 289 4.8 9.7 0.00 0.00 0.00 32 1014.0
20260510190731 29 260 1.6 6.4 0.00 0.00 0.00 34 1014.0
20260510190231 29 271 8.0 12.9 0.00 0.00 0.00 33 1014.0
20260510185731 29 79 4.8 8.0 0.00 0.00 0.00 34 1014.0
20260510185231 29 53 0.0 3.2 0.00 0.00 0.00 35 1015.0
20260510184733 28 69 3.2 4.8 0.00 0.00 0.00 34 1015.0
20260510184231 29 63 1.6 4.8 0.00 0.00 0.00 34 1015.0
20260510183731 30 79 4.8 6.4 0.00 0.00 0.00 34 1015.0
20260510183231 30 33 3.2 6.4 0.00 0.00 0.00 35 1015.0
20260510182732 30 288 4.8 9.7 0.00 0.00 0.00 32 1015.0
20260510182232 29 282 4.8 11.3 0.00 0.00 0.00 33 1015.0
20260510181733 29 297 3.2 6.4 0.00 0.00 0.00 33 1015.0
20260510181232 28 282 3.2 8.0 0.00 0.00 0.00 35 1015.0
20260510180731 28 114 3.2 6.4 0.00 0.00 0.00 34 1015.0
20260510180232 28 257 4.8 12.9 0.00 0.00 0.00 34 1015.0
20260510175732 28 52 4.8 8.0 0.00 0.00 0.00 36 1015.0
20260510175231 30 280 6.4 9.7 0.00 0.00 0.00 34 1015.0
20260510174732 30 307 4.8 9.7 0.00 0.00 0.00 35 1015.0
20260510174231 29 296 3.2 8.0 0.00 0.00 0.00 35 1015.0
20260510173733 29 33 3.2 6.4 0.00 0.00 0.00 36 1015.0
20260510173232 29 245 6.4 16.1 0.00 0.00 0.00 34 1015.0
20260510172732 28 262 3.2 4.8 0.00 0.00 0.00 36 1015.0
20260510172231 28 266 8.0 14.5 0.00 0.00 0.00 34 1015.0
20260510171734 27 298 3.2 6.4 0.00 0.00 0.00 38 1015.0
20260510171231 27 2 3.2 6.4 0.00 0.00 0.00 36 1015.0
20260510170732 27 81 3.2 8.0 0.00 0.00 0.00 37 1015.0
20260510170234 27 45 3.2 4.8 0.00 0.00 0.00 37 1015.0
20260510165734 27 344 4.8 9.7 0.00 0.00 0.00 37 1015.0
20260510165232 27 58 6.4 9.7 0.00 0.00 0.00 38 1015.0
20260510164732 27 48 4.8 12.9 0.00 0.00 0.00 38 1015.0
20260510164232 27 56 3.2 8.0 0.00 0.00 0.00 39 1015.0
20260510163731 27 45 6.4 11.3 0.00 0.00 0.00 38 1015.0
20260510163231 27 173 1.6 3.2 0.00 0.00 0.00 41 1015.0
20260510162732 27 260 1.6 3.2 0.00 0.00 0.00 42 1015.0
20260510162232 27 42 4.8 12.9 0.00 0.00 0.00 41 1016.0
20260510161732 27 168 1.6 4.8 0.00 0.00 0.00 41 1016.0
20260510161232 27 36 4.8 8.0 0.00 0.00 0.00 41 1016.0
20260510160733 28 298 1.6 4.8 0.00 0.00 0.00 39 1016.0
20260510160231 28 249 1.6 4.8 0.00 0.00 0.00 40 1016.0
20260510155731 27 5 3.2 6.4 0.00 0.00 0.00 42 1016.0
20260510155232 26 296 3.2 6.4 0.00 0.00 0.00 42 1016.0
20260510154732 27 82 9.7 14.5 0.00 0.00 0.00 41 1016.0
20260510154232 27 11 1.6 6.4 0.00 0.00 0.00 41 1016.0
20260510153732 26 326 1.6 4.8 0.00 0.00 0.00 46 1016.0
20260510153231 26 104 9.7 14.5 0.00 0.00 0.00 45 1016.0
20260510152734 26 87 6.4 12.9 0.00 0.00 0.00 43 1016.0
20260510152231 26 299 4.8 8.0 0.00 0.00 0.00 44 1016.0
20260510151732 26 68 6.4 8.0 0.00 0.00 0.00 44 1016.0
20260510151232 26 74 6.4 9.7 0.00 0.00 0.00 45 1016.0
20260510150732 26 83 3.2 6.4 0.00 0.00 0.00 46 1016.0
20260510150233 26 100 3.2 6.4 0.00 0.00 0.00 47 1016.0
20260510145731 26 346 1.6 4.8 0.00 0.00 0.00 47 1016.0
20260510145233 25 260 6.4 11.3 0.00 0.00 0.00 48 1016.0
20260510144731 26 30 3.2 6.4 0.00 0.00 0.00 50 1016.0
20260510144231 26 7 1.6 3.2 0.00 0.00 0.00 50 1016.0
20260510143731 25 270 3.2 4.8 0.00 0.00 0.00 50 1016.0
20260510143232 25 63 1.6 6.4 0.00 0.00 0.00 52 1016.0
20260510142731 25 21 0.0 3.2 0.00 0.00 0.00 51 1016.0
20260510142232 25 203 0.0 3.2 0.00 0.00 0.00 53 1016.0
20260510141732 24 107 3.2 6.4 0.00 0.00 0.00 54 1016.0
20260510141232 23 102 1.6 3.2 0.00 0.00 0.00 57 1016.0
20260510140732 24 57 4.8 6.4 0.00 0.00 0.00 56 1016.0
20260510140233 25 207 1.6 3.2 0.00 0.00 0.00 55 1016.0
20260510135732 24 333 1.6 3.2 0.00 0.00 0.00 57 1016.0
20260510135232 23 315 3.2 4.8 0.00 0.00 0.00 58 1016.0
20260510134731 23 291 3.2 6.4 0.00 0.00 0.00 61 1016.0
20260510134232 23 87 4.8 6.4 0.00 0.00 0.00 62 1016.0
20260510133732 23 44 1.6 4.8 0.00 0.00 0.00 60 1016.0
20260510133231 23 258 1.6 4.8 0.00 0.00 0.00 61 1016.0
20260510132732 23 305 1.6 4.8 0.00 0.00 0.00 61 1016.0
20260510132233 23 42 3.2 6.4 0.00 0.00 0.00 62 1016.0
20260510131732 22 306 1.6 8.0 0.00 0.00 0.00 63 1016.0
20260510131232 22 236 1.6 4.8 0.00 0.00 0.00 64 1016.0
20260510130731 22 283 4.8 6.4 0.00 0.00 0.00 64 1016.0
20260510130234 22 310 0.0 3.2 0.00 0.00 0.00 68 1016.0
20260510125734 21 233 3.2 6.4 0.00 0.00 0.00 70 1016.0
20260510125234 21 250 1.6 3.2 0.00 0.00 0.00 73 1016.0
20260510124732 21 236 0.0 4.8 0.00 0.00 0.00 74 1016.0
20260510124232 21 243 1.6 3.2 0.00 0.00 0.00 74 1015.0
20260510123732 20 235 1.6 4.8 0.00 0.00 0.00 78 1015.0
20260510123232 20 235 1.6 4.8 0.00 0.00 0.00 78 1015.0
20260510122732 20 0 0.0 0.0 0.00 0.00 0.00 79 1015.0
20260510122232 18 0 0.0 0.0 0.00 0.00 0.00 84 1015.0
20260510121732 18 215 0.0 1.6 0.00 0.00 0.00 84 1015.0
20260510121232 18 0 0.0 0.0 0.00 0.00 0.00 87 1015.0
20260510120733 17 0 0.0 0.0 0.00 0.00 0.00 87 1015.0
20260510120231 17 270 1.6 3.2 0.00 0.00 0.00 88 1015.0
20260510115733 17 241 0.0 0.0 0.00 0.00 0.00 91 1015.0
20260510115232 16 0 0.0 0.0 0.00 0.00 0.00 96 1015.0
20260510114731 15 0 0.0 0.0 0.00 0.00 0.00 98 1015.0
20260510114231 15 0 0.0 0.0 0.00 0.00 0.00 98 1015.0
20260510113731 15 0 0.0 0.0 0.00 0.00 0.00 98 1015.0
20260510113231 15 251 0.0 1.6 0.00 0.00 0.00 98 1015.0
20260510112733 14 0 0.0 0.0 0.00 0.00 0.00 98 1015.0
20260510112231 14 0 0.0 0.0 0.00 0.00 0.00 98 1015.0
20260510111733 14 0 0.0 0.0 0.00 0.00 0.00 98 1015.0
20260510111232 14 233 0.0 0.0 0.00 0.00 0.00 98 1014.0
20260510110734 14 0 0.0 0.0 0.00 0.00 0.00 98 1014.0
20260510110233 14 298 0.0 0.0 0.00 0.00 0.00 98 1014.0
20260510105732 14 0 0.0 0.0 0.00 0.00 0.00 98 1014.0
20260510105231 14 0 0.0 0.0 0.00 0.00 0.00 98 1014.0
20260510104734 14 0 0.0 0.0 0.00 0.00 0.00 98 1014.0
20260510104232 14 0 0.0 0.0 0.00 0.00 0.00 98 1014.0
20260510103731 14 267 0.0 0.0 0.00 0.00 0.00 98 1014.0
20260510103232 14 239 0.0 1.6 0.00 0.00 0.00 98 1014.0
20260510102731 14 260 0.0 0.0 0.00 0.00 0.00 98 1014.0
20260510102232 14 0 0.0 0.0 0.00 0.00 0.00 98 1013.0
20260510101732 14 247 0.0 1.6 0.00 0.00 0.00 98 1013.0
20260510101232 14 0 0.0 0.0 0.00 0.00 0.00 98 1013.0
20260510100731 14 247 0.0 3.2 0.00 0.00 0.00 98 1013.0
20260510100232 15 0 0.0 0.0 0.00 0.00 0.00 98 1013.0
20260510095731 14 0 0.0 0.0 0.00 0.00 0.00 98 1013.0
20260510095231 15 0 0.0 0.0 0.00 0.00 0.00 97 1013.0
20260510094733 15 187 0.0 1.6 0.00 0.00 0.00 97 1013.0
20260510094231 15 322 0.0 1.6 0.00 0.00 0.00 97 1013.0
20260510093732 15 283 1.6 3.2 0.00 0.00 0.00 97 1013.0
20260510093232 15 0 0.0 0.0 0.00 0.00 0.00 97 1013.0
20260510092732 15 331 0.0 1.6 0.00 0.00 0.00 97 1013.0
20260510092233 15 0 0.0 0.0 0.00 0.00 0.00 97 1013.0
20260510091732 15 349 0.0 3.2 0.00 0.00 0.00 97 1013.0
20260510091231 15 114 0.0 0.0 0.00 0.00 0.00 97 1013.0
20260510090731 15 0 0.0 0.0 0.00 0.00 0.00 97 1013.0
20260510090232 15 0 0.0 0.0 0.00 0.00 0.00 97 1013.0
20260510085731 15 244 1.6 3.2 0.00 0.00 0.00 97 1013.0
20260510085231 15 0 0.0 0.0 0.00 0.00 0.00 97 1013.0
20260510084732 15 0 0.0 0.0 0.00 0.00 0.00 96 1013.0
20260510084231 15 0 0.0 0.0 0.00 0.00 0.00 96 1013.0
20260510083732 15 0 0.0 0.0 0.00 0.00 0.00 96 1013.0
20260510083232 15 0 0.0 0.0 0.00 0.00 0.00 96 1013.0
20260510082732 15 303 0.0 1.6 0.00 0.00 0.00 96 1013.0
20260510082232 15 307 0.0 3.2 0.00 0.00 0.00 96 1013.0
20260510081733 15 241 0.0 1.6 0.00 0.00 0.00 96 1012.0
20260510081231 15 0 0.0 0.0 0.00 0.00 0.00 96 1012.0
20260510080731 15 0 0.0 0.0 0.00 0.00 0.00 96 1012.0
20260510080231 15 178 1.6 3.2 0.00 0.00 0.00 96 1013.0
20260510075731 15 254 0.0 1.6 0.00 0.00 0.00 96 1013.0
20260510075231 15 280 0.0 1.6 0.00 0.00 0.00 96 1013.0
20260510074731 15 0 0.0 0.0 0.00 0.00 0.00 96 1013.0
20260510074232 15 344 0.0 1.6 0.00 0.00 0.00 96 1013.0
20260510073733 15 269 1.6 3.2 0.00 0.00 0.00 96 1012.0
20260510073231 15 0 0.0 0.0 0.00 0.00 0.00 96 1012.0
20260510072731 15 245 0.0 1.6 0.00 0.00 0.00 96 1012.0
20260510072231 15 0 0.0 0.0 0.00 0.00 0.00 96 1012.0
20260510071732 15 0 0.0 0.0 0.00 0.00 0.00 95 1012.0
20260510071231 15 0 0.0 0.0 0.00 0.00 0.00 95 1012.0
20260510070734 15 256 1.6 3.2 0.00 0.00 0.00 95 1012.0
20260510070233 15 252 0.0 3.2 0.00 0.00 0.00 95 1012.0
20260510065731 15 0 0.0 0.0 0.00 0.00 0.00 95 1012.0
20260510065231 15 0 0.0 0.0 0.00 0.00 0.00 95 1012.0
20260510064731 15 289 1.6 3.2 0.00 0.00 0.00 95 1012.0
20260510064231 15 0 0.0 0.0 0.00 0.00 0.00 95 1012.0
20260510063735 16 29 0.0 0.0 0.00 0.00 0.00 95 1012.0
20260510063233 16 22 0.0 0.0 0.00 0.00 0.00 94 1012.0
20260510062732 16 0 0.0 0.0 0.00 0.00 0.00 94 1012.0
20260510062231 16 247 0.0 3.2 0.00 0.00 0.00 94 1012.0
20260510061733 16 267 0.0 1.6 0.00 0.00 0.00 94 1012.0
20260510061232 16 0 0.0 0.0 0.00 0.00 0.00 93 1012.0
20260510060732 16 317 0.0 1.6 0.00 0.00 0.00 93 1012.0
20260510060233 16 237 0.0 0.0 0.00 0.00 0.00 93 1012.0
20260510055731 16 286 0.0 1.6 0.00 0.00 0.00 93 1012.0
20260510055232 16 238 0.0 0.0 0.00 0.00 0.00 92 1012.0
20260510054733 16 264 0.0 3.2 0.00 0.00 0.00 92 1012.0
20260510054231 16 266 1.6 3.2 0.00 0.00 0.00 92 1013.0
20260510053731 16 0 0.0 0.0 0.00 0.00 0.00 92 1013.0
20260510053231 16 0 0.0 0.0 0.00 0.00 0.00 92 1013.0
20260510052732 16 245 1.6 3.2 0.00 0.00 0.00 92 1013.0
20260510052232 16 241 1.6 1.6 0.00 0.00 0.00 92 1013.0
20260510051733 16 0 0.0 0.0 0.00 0.00 0.00 92 1013.0
20260510051232 16 0 0.0 0.0 0.00 0.00 0.00 92 1013.0
20260510050731 16 0 0.0 0.0 0.00 0.00 0.00 92 1013.0
20260510050234 16 238 0.0 1.6 0.00 0.00 0.00 92 1013.0
20260510045731 16 0 0.0 0.0 0.00 0.00 0.00 92 1013.0
20260510045231 16 12 0.0 1.6 0.00 0.00 0.00 92 1013.0
20260510044731 16 0 0.0 0.0 0.00 0.00 0.00 92 1013.0
20260510044232 16 0 0.0 0.0 0.00 0.00 0.00 92 1013.0
20260510043732 16 0 0.0 0.0 0.00 0.00 0.00 92 1013.0
20260510043232 16 0 0.0 0.0 0.00 0.00 0.00 92 1013.0
20260510042732 16 0 0.0 0.0 0.00 0.00 0.00 92 1013.0
20260510042232 16 47 0.0 0.0 0.00 0.00 0.00 91 1013.0
20260510041732 17 0 0.0 0.0 0.00 0.00 0.00 91 1013.0
20260510041232 17 0 0.0 0.0 0.00 0.00 0.00 90 1013.0
20260510040731 17 262 0.0 1.6 0.00 0.00 0.00 90 1013.0
20260510040231 17 0 0.0 0.0 0.00 0.00 0.00 90 1013.0
20260510035732 17 0 0.0 0.0 0.00 0.00 0.00 90 1013.0
20260510035232 17 0 0.0 0.0 0.00 0.00 0.00 90 1013.0
20260510034732 17 350 0.0 1.6 0.00 0.00 0.00 89 1013.0
20260510034231 17 0 0.0 0.0 0.00 0.00 0.00 89 1013.0
20260510033733 17 0 0.0 0.0 0.00 0.00 0.00 88 1013.0
20260510033232 17 0 0.0 0.0 0.00 0.00 0.00 88 1013.0
20260510032733 18 275 0.0 3.2 0.00 0.00 0.00 87 1013.0
20260510032232 18 279 1.6 3.2 0.00 0.00 0.00 87 1013.0
20260510031733 18 103 0.0 1.6 0.00 0.00 0.00 86 1013.0
20260510031232 18 151 0.0 0.0 0.00 0.00 0.00 87 1013.0
20260510030734 18 0 0.0 0.0 0.00 0.00 0.00 86 1013.0
20260510030231 18 277 3.2 6.4 0.00 0.00 0.00 86 1013.0
20260510025732 18 270 3.2 6.4 0.00 0.00 0.00 86 1013.0
20260510025232 18 264 1.6 3.2 0.00 0.00 0.00 87 1012.0
20260510024732 18 260 0.0 1.6 0.00 0.00 0.00 87 1012.0
20260510024232 18 0 0.0 0.0 0.00 0.00 0.00 87 1012.0
20260510023731 18 0 0.0 0.0 0.00 0.00 0.00 86 1012.0
20260510023234 18 272 1.6 3.2 0.00 0.00 0.00 86 1012.0
20260510022733 18 288 1.6 3.2 0.00 0.00 0.00 86 1012.0
20260510022231 18 264 3.2 4.8 0.00 0.00 0.00 86 1012.0
20260510021731 18 254 0.0 1.6 0.00 0.00 0.00 87 1012.0
20260510021232 18 323 0.0 1.6 0.00 0.00 0.00 86 1012.0
20260510020732 18 253 0.0 0.0 0.00 0.00 0.00 86 1012.0
20260510020234 18 264 1.6 3.2 0.00 0.00 0.00 86 1012.0
20260510015731 18 332 0.0 1.6 0.00 0.00 0.00 87 1012.0
20260510015231 18 270 0.0 3.2 0.00 0.00 0.00 87 1012.0
20260510014733 18 0 0.0 0.0 0.00 0.00 0.00 86 1012.0
20260510014232 18 0 0.0 0.0 0.00 0.00 0.00 86 1012.0
20260510013731 18 0 0.0 0.0 0.00 0.00 0.00 85 1012.0
20260510013232 18 0 0.0 0.0 0.00 0.00 0.00 85 1012.0
20260510012731 18 249 0.0 1.6 0.00 0.00 0.00 85 1012.0
20260510012231 18 0 0.0 0.0 0.00 0.00 0.00 84 1012.0
20260510011731 19 0 0.0 0.0 0.00 0.00 0.00 83 1011.0
20260510010804 19 347 0.0 0.0 0.00 0.00 0.00 82 1011.0
20260510010231 20 0 0.0 0.0 0.00 0.00 0.00 81 1011.0
20260510005731 20 0 0.0 0.0 0.00 0.00 0.00 80 1011.0
20260510005231 20 0 0.0 0.0 0.00 0.00 0.00 80 1011.0
20260510004731 20 24 0.0 0.0 0.00 0.00 0.00 79 1011.0
20260510004231 20 22 0.0 1.6 0.00 0.00 0.00 78 1011.0
20260510003731 20 60 0.0 1.6 0.00 0.00 0.00 78 1011.0
20260510003231 20 1 0.0 1.6 0.00 0.00 0.00 77 1011.0
20260510002731 21 298 3.2 4.8 0.00 0.00 0.00 76 1011.0
20260510002233 21 0 0.0 0.0 0.00 0.00 0.00 76 1011.0
20260510001731 21 293 1.6 4.8 0.00 0.00 0.00 75 1011.0
20260510001231 21 285 3.2 4.8 0.00 0.00 0.00 75 1011.0
20260510000732 21 270 4.8 6.4 0.00 0.00 0.00 74 1011.0
20260510000233 21 0 0.0 0.0 0.00 0.00 0.00 74 1011.0
20260509235731 21 263 0.0 3.2 0.00 0.00 0.00 74 1011.0
20260509235231 21 282 0.0 3.2 0.00 0.00 0.00 74 1011.0
20260509234732 21 294 6.4 9.7 0.00 0.00 0.00 73 1011.0
20260509234231 21 266 3.2 6.4 0.00 0.00 0.00 73 1011.0
20260509233732 22 264 1.6 4.8 0.00 0.00 0.00 72 1011.0
20260509233232 22 269 3.2 6.4 0.00 0.00 0.00 72 1011.0
20260509232731 22 256 3.2 4.8 0.00 0.00 0.00 72 1011.0
20260509232232 22 272 0.0 1.6 0.00 0.00 0.00 71 1011.0
20260509231732 22 295 3.2 8.0 0.00 0.00 0.00 71 1011.0
20260509231232 22 296 4.8 6.4 0.00 0.00 0.00 70 1011.0
20260509230731 22 278 1.6 6.4 0.00 0.00 0.00 69 1010.0
20260509230231 22 290 3.2 8.0 0.00 0.00 0.00 70 1010.0
20260509225732 22 289 3.2 8.0 0.00 0.00 0.00 70 1010.0
20260509225231 22 301 6.4 9.7 0.00 0.00 0.00 69 1010.0
20260509224731 22 257 3.2 6.4 0.00 0.00 0.00 69 1010.0
20260509224231 22 268 3.2 6.4 0.00 0.00 0.00 68 1010.0
20260509223731 22 304 1.6 3.2 0.00 0.00 0.00 68 1010.0
20260509223231 23 268 3.2 8.0 0.00 0.00 0.00 67 1010.0
20260509222734 23 268 1.6 4.8 0.00 0.00 0.00 66 1011.0
20260509222232 23 299 4.8 8.0 0.00 0.00 0.00 67 1010.0
20260509221733 22 289 3.2 6.4 0.00 0.00 0.00 67 1010.0
20260509221231 22 272 6.4 9.7 0.00 0.00 0.00 67 1010.0
20260509220732 23 293 8.0 11.3 0.00 0.00 0.00 67 1010.0
20260509220232 23 292 1.6 3.2 0.00 0.00 0.00 67 1010.0
20260509215732 23 275 9.7 14.5 0.00 0.00 0.00 67 1010.0
20260509215233 23 278 3.2 8.0 0.00 0.00 0.00 67 1010.0
20260509214732 22 293 6.4 8.0 0.00 0.00 0.00 66 1010.0
20260509214232 23 285 9.7 16.1 0.00 0.00 0.00 66 1010.0
20260509213732 23 248 3.2 4.8 0.00 0.00 0.00 65 1010.0
20260509213232 23 269 8.0 12.9 0.00 0.00 0.00 65 1010.0
20260509212731 23 276 12.9 17.7 0.00 0.00 0.00 63 1010.0
20260509212232 23 284 4.8 6.4 0.00 0.00 0.00 64 1010.0
20260509211732 23 250 3.2 4.8 0.00 0.00 0.00 65 1010.0
20260509211231 23 292 8.0 11.3 0.00 0.00 0.00 64 1010.0
20260509210731 23 291 6.4 11.3 0.00 0.00 0.00 65 1010.0
20260509210232 23 320 3.2 8.0 0.00 0.00 0.00 64 1010.0
20260509205734 22 294 8.0 14.5 0.00 0.00 0.00 66 1010.0
20260509205234 22 263 6.4 12.9 0.00 0.00 0.00 66 1010.0
20260509204731 23 284 3.2 6.4 0.00 0.00 0.00 65 1010.0
20260509204232 23 310 0.0 3.2 0.00 0.00 0.00 66 1010.0
20260509203732 23 301 3.2 4.8 0.00 0.00 0.00 65 1010.0
20260509203232 22 274 3.2 8.0 0.00 0.00 0.00 64 1010.0
20260509202732 22 273 6.4 12.9 0.00 0.00 0.00 65 1010.0
20260509202231 22 264 4.8 6.4 0.00 0.00 0.00 66 1010.0
20260509201731 22 295 1.6 4.8 0.00 0.00 0.00 64 1010.0
20260509201232 22 301 8.0 12.9 0.00 0.00 0.00 64 1010.0
20260509200731 22 280 6.4 11.3 0.00 0.00 0.00 63 1010.0
20260509200231 22 291 6.4 9.7 0.00 0.00 0.00 64 1010.0
20260509195732 22 269 3.2 6.4 0.00 0.00 0.00 65 1010.0
20260509195232 22 289 8.0 14.5 0.00 0.00 0.00 64 1010.0
20260509194734 22 298 4.8 12.9 0.00 0.00 0.00 64 1011.0
20260509194233 23 118 1.6 3.2 0.00 0.00 0.00 65 1011.0
20260509193731 23 262 3.2 6.4 0.00 0.00 0.00 63 1011.0
20260509193232 23 308 3.2 4.8 0.00 0.00 0.00 62 1011.0